QPF
0.00 0.00 0.00 0.00 0.00 0.00 0.00 0.00 0.00 0.00 0.00 0.00 0.00 0.00 0.00 0.00 0.00 0.00 0.00 0.00 0.00 0.00 0.00 0.00 0.00 0.00 0.00 0.00 0.00 0.00 0.00 0.00 0.00 0.00 0.00 0.00 0.00 0.00 0.00 0.00 0.00 0.00
0.00 0.00 0.00 0.00 0.00 0.00 0.00 0.00 0.00 0.00 0.00 0.00 0.00 0.00 0.00 0.00 0.00 0.00 0.00 0.00 0.00 0.00 0.00 0.00 0.00 0.00 0.00 0.00 0.00 0.00 0.00 0.00 0.00 0.00 0.00 0.00 0.00 0.00 0.00 0.00 0.00 0.00
0.00 0.00 0.00 0.00 0.00 0.00 0.00 0.00 0.00 0.00 0.00 0.00 0.00 0.00 0.00 0.00 0.00 0.00 0.00 0.00 0.00 0.00 0.00 0.00 0.00 0.00 0.00 0.00 0.00 0.00 0.00 0.00 0.00 0.00 0.00 0.00 0.00 0.00 0.00 0.00 0.00 0.00
0.00 0.00 0.00 0.00 0.00 0.00 0.00 0.00 0.00 0.00 0.00 0.00 0.00 0.00 0.00 0.00 0.00 0.00 0.00 0.00 0.00 0.00 0.00 0.00 0.00 0.00 0.00 0.00 0.00 0.00 0.00 0.00 0.00 0.00 0.00 0.00 0.00 0.00 0.00 0.00 0.00 0.00
0.00 0.00 0.00 0.00 0.00 0.00 0.00 0.00 0.00 0.00 0.00 0.00 0.00 0.00 0.00 0.00 0.00 0.00 0.00 0.00 0.00 0.00 0.00 0.00 0.00 0.00 0.00 0.00 0.00 0.00 0.00 0.00 0.00 0.00 0.00 0.00 0.00 0.00 0.00 0.00 0.00 0.00
0.00 0.00 0.00 0.00 0.00 0.00 0.00 0.00 0.00 0.00 0.00 0.00 0.00 0.00 0.00 0.00 0.00 0.00 0.00 0.00 0.00 0.00 0.00 0.00 0.00 0.00 0.00 0.00 0.00 0.00 0.00 0.00 0.00 0.00 0.00 0.00 0.00 0.00 0.00 0.00 0.00 0.00
0.00 0.00 0.00 0.00 0.00 0.00 0.00 0.00 0.00 0.00 0.00 0.00 0.00 0.00 0.00 0.00 0.00 0.00 0.00 0.00 0.00 0.00 0.00 0.00 0.00 0.00 0.00 0.00 0.00 0.00 0.00 0.00 0.00 0.00 0.00 0.00 0.00 0.00 0.00 0.00 0.00 0.00
0.00 0.00 0.00 0.00 0.00 0.00 0.00 0.00 0.00 0.00 0.00 0.00 0.00 0.00 0.00 0.00 0.00 0.00 0.00 0.00 0.00 0.00 0.00 0.00 0.00 0.00 0.00 0.00 0.00 0.00 0.00 0.00 0.00 0.00 0.00 0.00 0.00 0.00 0.00 0.00 0.00 0.00
0.00 0.00 0.00 0.00 0.00 0.00 0.00 0.00 0.00 0.00 0.00 0.00 0.00 0.00 0.00 0.00 0.00 0.00 0.00 0.00 0.00 0.00 0.00 0.00 0.00 0.00 0.00 0.00 0.00 0.00 0.00 0.00 0.00 0.00 0.00 0.00 0.00 0.00 0.00 0.00 0.00 0.00
0.00 0.00 0.00 0.00 0.00 0.00 0.00 0.00 0.00 0.00 0.00 0.00 0.00 0.00 0.00 0.00 0.00 0.00 0.00 0.00 0.00 0.00 0.00 0.00 0.00 0.00 0.00 0.00 0.00 0.00 0.00 0.00 0.00 0.00 0.00 0.00 0.00 0.00 0.00 0.00 0.00 0.00
0.00 0.00 0.00 0.00 0.00 0.00 0.00 0.00 0.00 0.00 0.00 0.00 0.00 0.00 0.00 0.00 0.00 0.00 0.00 0.00 0.00 0.00 0.00 0.00 0.00 0.00 0.00 0.00 0.00 0.00 0.00 0.00 0.00 0.00 0.00 0.00 0.00 0.00 0.00 0.00 0.00 0.00
0.00 0.00 0.00 0.00 0.00 0.00 0.00 0.00 0.00 0.00 0.00 0.00 0.00 0.00 0.00 0.00 0.00 0.00 0.00 0.00 0.00 0.00 0.00 0.00 0.00 0.00 0.00 0.00 0.00 0.00 0.00 0.00 0.00 0.00 0.00 0.00 0.00 0.00 0.00 0.00 0.00 0.00
0.00 0.00 0.00 0.00 0.00 0.00 0.00 0.00 0.00 0.00 0.00 0.00 0.00 0.00 0.00 0.00 0.00 0.00 0.00 0.00 0.00 0.00 0.00 0.00 0.00 0.00 0.00 0.00 0.00 0.00 0.00 0.00 0.00 0.00 0.00 0.00 0.00 0.00 0.00 0.00 0.00 0.00
0.00 0.00 0.00 0.00 0.00 0.00 0.00 0.00 0.00 0.00 0.00 0.00 0.00 0.00 0.00 0.00 0.00 0.00 0.00 0.00 0.00 0.00 0.00 0.00 0.00 0.00 0.00 0.00 0.00 0.00 0.00 0.00 0.00 0.00 0.00 0.00 0.00 0.00 0.00 0.00 0.00 0.00
0.00 0.00 0.00 0.00 0.00 0.00 0.00 0.00 0.00 0.00 0.00 0.00 0.00 0.00 0.00 0.00 0.00 0.00 0.00 0.00 0.00 0.00 0.00 0.00 0.00 0.00 0.00 0.00 0.00 0.00 0.00 0.00 0.00 0.00 0.00 0.00 0.00 0.00 0.00 0.00 0.00 0.00
0.00 0.00 0.00 0.00 0.00 0.00 0.00 0.00 0.00 0.00 0.00 0.00 0.00 0.00 0.00 0.00 0.00 0.00 0.00 0.00 0.00 0.00 0.00 0.00 0.00 0.00 0.00 0.00 0.00 0.00 0.00 0.00 0.00 0.00 0.00 0.00 0.00 0.00 0.00 0.00 0.00 0.00
0.00 0.00 0.00 0.00 0.00 0.00 0.00 0.00 0.00 0.00 0.00 0.00 0.00 0.00 0.00 0.00 0.00 0.00 0.00 0.00 0.00 0.00 0.00 0.00 0.00 0.00 0.00 0.00 0.00 0.00 0.00 0.00 0.00 0.00 0.00 0.00 0.00 0.00 0.00 0.00 0.00 0.00
0.00 0.00 0.00 0.00 0.00 0.00 0.00 0.00 0.00 0.00 0.00 0.00 0.00 0.00 0.00 0.00 0.00 0.00 0.00 0.00 0.00 0.00 0.00 0.00 0.00 0.00 0.00 0.00 0.00 0.00 0.00 0.00 0.00 0.00 0.00 0.00 0.00 0.00 0.00 0.00 0.00 0.00
0.00 0.00 0.00 0.00 0.00 0.00 0.00 0.00 0.00 0.00 0.00 0.00 0.00 0.00 0.00 0.00 0.00 0.00 0.00 0.00 0.00 0.00 0.00 0.00 0.00 0.00 0.00 0.00 0.00 0.00 0.00 0.00 0.00 0.00 0.00 0.00 0.00 0.00 0.00 0.00 0.00 0.00
0.00 0.01 0.00 0.00 0.00 0.00 0.00 0.00 0.00 0.00 0.00 0.00 0.00 0.00 0.00 0.00 0.00 0.00 0.00 0.00 0.00 0.00 0.00 0.00 0.00 0.00 0.00 0.00 0.00 0.00 0.00 0.00 0.00 0.00 0.00 0.00 0.00 0.00 0.00 0.00 0.00 0.00
0.00 0.00 0.00 0.00 0.00 0.00 0.00 0.00 0.00 0.00 0.00 0.00 0.00 0.00 0.00 0.00 0.00 0.00 0.00 0.00 0.00 0.00 0.00 0.00 0.00 0.00 0.00 0.00 0.00 0.00 0.00 0.00 0.00 0.00 0.00 0.00 0.00 0.00 0.00 0.00 0.00 0.00
0.00 0.00 0.00 0.00 0.00 0.00 0.00 0.00 0.00 0.00 0.00 0.00 0.00 0.00 0.00 0.00 0.00 0.00 0.00 0.00 0.00 0.00 0.00 0.00 0.00 0.00 0.00 0.00 0.00 0.00 0.00 0.00 0.00 0.00 0.00 0.00 0.00 0.00 0.00 0.00 0.00 0.00
0.00 0.00 0.00 0.00 0.00 0.00 0.00 0.00 0.00 0.00 0.00 0.00 0.00 0.00 0.00 0.00 0.00 0.00 0.00 0.00 0.00 0.00 0.00 0.00 0.00 0.00 0.00 0.00 0.00 0.00 0.00 0.00 0.00 0.00 0.00 0.00 0.00 0.00 0.00 0.00 0.00 0.00
0.00 0.00 0.00 0.00 0.00 0.00 0.00 0.00 0.00 0.00 0.00 0.00 0.00 0.00 0.00 0.00 0.00 0.00 0.00 0.00 0.00 0.00 0.00 0.00 0.00 0.00 0.00 0.00 0.00 0.00 0.00 0.00 0.00 0.00 0.00 0.00 0.00 0.00 0.00 0.00 0.00 0.00
0.01 0.01 0.00 0.00 0.00 0.00 0.00 0.00 0.00 0.00 0.00 0.00 0.00 0.00 0.00 0.00 0.00 0.00 0.00 0.00 0.00 0.00 0.00 0.00 0.00 0.00 0.00 0.00 0.00 0.00 0.00 0.00 0.00 0.00 0.00 0.00 0.00 0.00 0.00 0.00 0.00 0.00
0.00 0.00 0.00 0.00 0.00 0.00 0.00 0.00 0.00 0.00 0.00 0.00 0.00 0.00 0.00 0.00 0.00 0.00 0.00 0.00 0.00 0.00 0.00 0.00 0.00 0.00 0.00 0.00 0.00 0.00 0.00 0.00 0.00 0.00 0.00 0.00 0.00 0.00 0.00 0.00 0.00 0.00
MSLP
1018.54 1018.62 1018.90 1019.22 1019.42 1019.46 1019.46 1019.58 1019.70 1019.78 1019.94 1020.02 1020.18 1020.46 1020.62 1020.74 1020.74 1020.66 1020.66 1020.58 1020.54 1020.42 1020.38 1020.34 1020.26 1020.18 1020.02 1019.82 1019.78 1019.46 1019.38 1019.42 1019.34 1019.42 1019.46 1019.30 1019.06 1018.98 1018.78 1018.66 1018.46 1018.10
1019.10 1019.14 1019.18 1019.22 1019.42 1019.70 1019.86 1019.90 1020.02 1020.14 1020.34 1020.46 1020.58 1020.70 1020.86 1020.82 1020.86 1020.86 1020.86 1020.66 1020.58 1020.66 1020.62 1020.50 1020.34 1020.22 1020.06 1019.98 1019.94 1019.74 1019.70 1019.58 1019.62 1019.62 1019.54 1019.22 1019.10 1018.94 1018.86 1018.78 1018.62 1018.38
1019.50 1019.50 1019.54 1019.74 1019.90 1020.02 1020.06 1020.18 1020.26 1020.42 1020.62 1020.74 1020.94 1021.02 1020.98 1020.98 1020.98 1021.02 1021.06 1021.02 1020.86 1020.78 1020.70 1020.58 1020.46 1020.38 1020.22 1020.18 1020.02 1019.90 1019.86 1019.74 1019.82 1019.74 1019.50 1019.26 1019.06 1019.02 1018.82 1018.74 1018.62 1018.46
1019.46 1019.54 1019.62 1019.78 1019.86 1019.98 1019.98 1020.14 1020.34 1020.50 1020.70 1020.98 1021.06 1021.02 1021.06 1021.14 1021.14 1021.14 1021.14 1021.10 1020.98 1020.90 1020.82 1020.70 1020.62 1020.54 1020.42 1020.26 1020.18 1020.10 1020.02 1019.86 1019.98 1019.94 1019.66 1019.26 1019.06 1018.94 1018.86 1018.78 1018.70 1018.50
1019.74 1019.82 1019.86 1019.98 1020.06 1020.10 1020.26 1020.42 1020.54 1020.66 1020.78 1020.94 1021.02 1021.18 1021.26 1021.30 1021.30 1021.30 1021.22 1021.22 1021.10 1021.02 1020.94 1020.82 1020.70 1020.62 1020.50 1020.38 1020.34 1020.30 1020.22 1020.18 1020.18 1019.94 1019.66 1019.46 1019.30 1019.10 1018.82 1018.74 1018.66 1018.50
1019.74 1019.78 1019.90 1020.06 1020.26 1020.38 1020.46 1020.70 1020.86 1020.98 1021.06 1021.22 1021.42 1021.46 1021.58 1021.54 1021.50 1021.50 1021.46 1021.34 1021.26 1021.18 1021.10 1020.98 1020.86 1020.82 1020.70 1020.54 1020.50 1020.50 1020.46 1020.42 1020.34 1020.02 1019.86 1019.70 1019.46 1019.14 1018.86 1018.78 1018.74 1018.54
1020.26 1020.26 1020.26 1020.34 1020.54 1020.78 1020.94 1021.10 1021.10 1021.14 1021.34 1021.50 1021.62 1021.70 1021.70 1021.78 1021.78 1021.74 1021.62 1021.54 1021.46 1021.42 1021.34 1021.26 1021.10 1021.02 1020.94 1020.70 1020.70 1020.62 1020.46 1020.46 1020.34 1020.22 1020.06 1019.74 1019.54 1019.34 1019.18 1019.02 1018.90 1018.82
1020.46 1020.58 1020.66 1020.74 1020.90 1021.10 1021.22 1021.30 1021.42 1021.50 1021.58 1021.74 1021.82 1021.82 1021.86 1021.94 1021.98 1021.90 1021.82 1021.82 1021.82 1021.70 1021.62 1021.50 1021.38 1021.30 1021.18 1021.02 1020.90 1020.70 1020.54 1020.42 1020.34 1020.18 1019.98 1019.78 1019.66 1019.54 1019.34 1019.30 1019.22 1019.18
1020.58 1020.78 1020.94 1021.02 1021.26 1021.38 1021.46 1021.50 1021.58 1021.62 1021.66 1021.78 1021.90 1022.06 1022.10 1022.06 1022.14 1022.14 1022.14 1022.10 1022.02 1021.98 1021.94 1021.82 1021.74 1021.62 1021.54 1021.38 1021.26 1021.02 1020.78 1020.58 1020.42 1020.26 1020.10 1019.90 1019.82 1019.62 1019.54 1019.50 1019.38 1019.38
1020.90 1020.98 1021.10 1021.30 1021.54 1021.66 1021.70 1021.70 1021.78 1021.86 1021.86 1021.90 1022.02 1022.10 1022.26 1022.34 1022.34 1022.34 1022.38 1022.42 1022.38 1022.26 1022.18 1022.18 1022.10 1022.02 1021.94 1021.82 1021.70 1021.42 1021.02 1020.82 1020.58 1020.46 1020.34 1020.14 1020.10 1019.94 1019.82 1019.74 1019.70 1019.66
1021.06 1021.18 1021.38 1021.70 1021.78 1021.82 1021.94 1021.98 1022.02 1022.06 1022.06 1022.10 1022.22 1022.26 1022.38 1022.46 1022.54 1022.54 1022.62 1022.66 1022.62 1022.62 1022.54 1022.54 1022.58 1022.54 1022.50 1022.38 1022.06 1021.70 1021.26 1021.14 1020.90 1020.78 1020.58 1020.46 1020.42 1020.38 1020.30 1020.26 1020.18 1020.14
1021.34 1021.58 1021.78 1021.90 1021.98 1022.06 1022.14 1022.14 1022.22 1022.26 1022.30 1022.30 1022.34 1022.50 1022.66 1022.74 1022.86 1022.86 1022.86 1022.90 1022.94 1022.98 1022.98 1022.98 1023.06 1023.14 1023.14 1022.98 1022.58 1022.02 1021.50 1021.42 1021.26 1021.10 1020.90 1020.86 1020.78 1020.78 1020.74 1020.66 1020.66 1020.66
1021.78 1021.90 1021.98 1022.06 1022.14 1022.22 1022.26 1022.34 1022.42 1022.42 1022.42 1022.50 1022.54 1022.66 1022.78 1022.90 1023.02 1023.06 1023.14 1023.14 1023.22 1023.34 1023.46 1023.50 1023.58 1023.66 1023.66 1023.50 1023.06 1022.42 1021.74 1021.58 1021.50 1021.38 1021.18 1021.18 1021.10 1021.06 1020.98 1020.94 1020.94 1020.94
1022.02 1022.14 1022.22 1022.26 1022.30 1022.38 1022.46 1022.54 1022.62 1022.66 1022.74 1022.82 1022.90 1022.98 1023.06 1023.10 1023.18 1023.26 1023.30 1023.34 1023.50 1023.62 1023.86 1023.98 1024.06 1024.14 1024.22 1024.14 1023.70 1023.10 1022.30 1021.74 1021.78 1021.58 1021.54 1021.50 1021.42 1021.26 1021.02 1021.06 1021.10 1021.10
1022.18 1022.34 1022.42 1022.46 1022.54 1022.62 1022.70 1022.74 1022.78 1022.82 1022.90 1023.06 1023.22 1023.34 1023.38 1023.38 1023.38 1023.38 1023.50 1023.58 1023.70 1023.82 1024.02 1024.30 1024.50 1024.66 1024.90 1024.94 1024.46 1023.78 1023.46 1022.30 1021.94 1021.86 1021.90 1021.82 1021.62 1021.38 1021.38 1021.46 1021.38 1021.38
1022.22 1022.38 1022.50 1022.58 1022.66 1022.74 1022.82 1022.90 1022.94 1023.06 1023.18 1023.30 1023.42 1023.58 1023.66 1023.66 1023.66 1023.66 1023.70 1023.82 1023.98 1024.10 1024.26 1024.46 1024.82 1025.10 1025.46 1025.10 1025.02 1024.78 1023.94 1023.06 1022.06 1022.14 1022.02 1021.98 1021.98 1021.94 1021.90 1021.78 1021.70 1021.74
1022.22 1022.42 1022.54 1022.66 1022.78 1022.90 1022.94 1023.02 1023.14 1023.26 1023.46 1023.62 1023.78 1023.86 1023.90 1023.90 1023.94 1024.06 1024.06 1024.06 1024.18 1024.38 1024.50 1024.66 1025.06 1025.62 1025.62 1025.18 1024.82 1024.66 1024.42 1023.50 1022.34 1022.30 1022.22 1022.26 1022.30 1022.18 1022.10 1022.14 1022.02 1021.98
1022.22 1022.38 1022.54 1022.70 1022.78 1022.94 1023.02 1023.14 1023.26 1023.42 1023.58 1023.78 1023.94 1024.06 1024.14 1024.18 1024.30 1024.30 1024.22 1024.22 1024.34 1024.50 1024.70 1024.90 1025.22 1025.94 1025.70 1025.34 1024.98 1024.50 1024.30 1023.98 1022.54 1022.38 1022.38 1022.46 1022.50 1022.42 1022.42 1022.46 1022.34 1022.14
1022.30 1022.50 1022.66 1022.82 1022.94 1023.06 1023.18 1023.22 1023.34 1023.50 1023.70 1023.94 1024.10 1024.22 1024.38 1024.50 1024.58 1024.54 1024.42 1024.34 1024.42 1024.62 1024.90 1025.14 1025.42 1026.14 1025.86 1025.54 1025.10 1024.58 1024.06 1023.90 1022.58 1022.58 1022.46 1022.58 1022.58 1022.58 1022.66 1022.66 1022.50 1022.26
1022.38 1022.74 1022.94 1023.10 1023.18 1023.30 1023.42 1023.54 1023.62 1023.78 1023.86 1023.94 1024.10 1024.34 1024.54 1024.74 1024.86 1024.82 1024.66 1024.54 1024.54 1024.66 1024.94 1025.38 1025.78 1026.22 1025.98 1025.58 1025.26 1024.70 1024.22 1023.82 1022.70 1022.58 1022.58 1022.58 1022.54 1022.54 1022.66 1022.62 1022.46 1022.38
1022.62 1022.90 1023.14 1023.30 1023.42 1023.58 1023.66 1023.78 1023.90 1023.90 1023.86 1023.94 1024.10 1024.38 1024.62 1024.78 1024.94 1025.06 1024.98 1024.74 1024.66 1024.78 1025.06 1025.50 1026.10 1026.34 1026.02 1025.70 1025.26 1024.82 1024.18 1023.50 1022.70 1022.66 1022.46 1022.42 1022.34 1022.30 1022.30 1022.46 1022.54 1022.50
1022.82 1023.14 1023.42 1023.58 1023.74 1023.82 1023.90 1024.06 1024.14 1024.10 1024.02 1024.06 1024.18 1024.46 1024.74 1024.90 1025.06 1025.10 1025.10 1024.94 1024.82 1024.90 1025.22 1025.54 1026.10 1026.38 1026.14 1025.86 1025.46 1024.90 1024.22 1023.06 1022.74 1022.58 1022.46 1022.26 1022.26 1022.10 1022.10 1022.54 1022.70 1022.78
1023.26 1023.42 1023.58 1023.74 1023.98 1024.14 1024.26 1024.30 1024.26 1024.18 1024.10 1024.10 1024.30 1024.58 1024.86 1025.02 1025.14 1025.22 1025.26 1025.22 1025.14 1025.14 1025.30 1025.66 1026.06 1026.46 1026.30 1026.02 1025.66 1025.30 1024.66 1023.34 1022.78 1022.54 1022.50 1022.26 1022.14 1022.26 1021.90 1022.50 1022.82 1022.82
1023.66 1023.82 1023.98 1024.06 1024.22 1024.34 1024.38 1024.38 1024.34 1024.26 1024.18 1024.18 1024.34 1024.62 1024.78 1024.90 1025.02 1025.22 1025.42 1025.54 1025.62 1025.62 1025.54 1025.62 1026.10 1026.54 1026.46 1026.18 1025.90 1025.58 1025.18 1023.90 1022.98 1022.74 1022.66 1022.54 1022.34 1022.22 1022.14 1022.26 1022.78 1022.98
1024.02 1024.14 1024.30 1024.38 1024.46 1024.50 1024.46 1024.42 1024.34 1024.30 1024.34 1024.38 1024.54 1024.58 1024.66 1024.74 1024.90 1025.02 1025.30 1025.54 1025.74 1025.86 1025.90 1025.70 1025.98 1026.38 1026.50 1026.38 1026.22 1025.94 1025.54 1024.34 1023.46 1023.42 1023.02 1022.62 1022.54 1022.46 1022.34 1022.38 1022.22 1022.42
1024.06 1024.30 1024.42 1024.50 1024.58 1024.54 1024.50 1024.42 1024.38 1024.38 1024.42 1024.38 1024.34 1024.30 1024.54 1024.78 1024.94 1025.14 1025.22 1025.38 1025.58 1025.82 1025.98 1025.94 1025.94 1026.14 1026.50 1026.54 1026.50 1026.26 1025.94 1025.18 1024.06 1023.98 1023.86 1023.18 1022.82 1022.74 1022.54 1022.50 1022.46 1022.34
Thickness
5647 5647 5646 5644 5643 5642 5642 5642 5641 5640 5639 5638 5636 5634 5632 5631 5630 5629 5629 5629 5628 5628 5627 5627 5626 5626 5626 5626 5626 5626 5626 5625 5624 5622 5621 5620 5621 5621 5620 5620 5620 5621
5642 5641 5641 5640 5639 5638 5638 5637 5636 5635 5633 5632 5631 5629 5628 5627 5626 5626 5625 5625 5625 5624 5623 5623 5622 5622 5622 5621 5621 5621 5620 5620 5619 5617 5616 5617 5617 5616 5615 5615 5615 5615
5637 5637 5637 5636 5636 5635 5634 5634 5632 5631 5629 5628 5626 5625 5624 5623 5622 5622 5621 5620 5620 5619 5619 5618 5618 5618 5617 5617 5617 5616 5615 5615 5614 5612 5612 5613 5613 5612 5611 5610 5610 5609
5633 5633 5633 5633 5633 5633 5632 5631 5629 5628 5626 5624 5623 5622 5621 5619 5619 5618 5617 5616 5616 5615 5615 5614 5613 5613 5612 5612 5612 5611 5611 5610 5608 5607 5607 5609 5608 5608 5607 5606 5605 5605
5630 5630 5630 5630 5629 5629 5628 5627 5626 5624 5623 5621 5620 5618 5617 5615 5615 5614 5613 5612 5612 5611 5611 5610 5609 5609 5608 5608 5607 5606 5605 5604 5603 5603 5603 5603 5603 5603 5603 5602 5601 5601
5627 5627 5627 5626 5626 5625 5624 5623 5621 5620 5619 5617 5615 5613 5612 5611 5610 5610 5608 5608 5607 5606 5606 5605 5605 5604 5604 5604 5602 5601 5600 5598 5597 5597 5598 5598 5597 5598 5598 5597 5596 5595
5623 5623 5623 5622 5621 5620 5618 5617 5617 5616 5614 5612 5610 5609 5608 5607 5605 5605 5604 5603 5602 5602 5601 5600 5600 5599 5598 5598 5597 5596 5595 5594 5593 5593 5592 5593 5592 5592 5592 5591 5591 5589
5619 5618 5618 5618 5617 5615 5614 5612 5611 5610 5609 5608 5606 5605 5603 5602 5601 5600 5599 5598 5597 5596 5595 5594 5594 5593 5592 5592 5591 5591 5591 5590 5589 5589 5588 5588 5587 5586 5586 5585 5583 5582
5615 5615 5614 5613 5611 5610 5609 5608 5607 5606 5605 5604 5602 5600 5599 5597 5596 5595 5593 5592 5591 5590 5589 5588 5588 5587 5586 5586 5585 5585 5585 5585 5584 5584 5583 5582 5581 5580 5580 5578 5577 5575
5611 5611 5610 5608 5607 5606 5605 5604 5603 5602 5601 5600 5598 5596 5595 5593 5591 5590 5588 5586 5585 5584 5583 5582 5581 5580 5579 5578 5578 5578 5579 5579 5578 5578 5577 5576 5575 5574 5572 5571 5569 5568
5607 5606 5604 5603 5601 5601 5600 5599 5598 5597 5596 5596 5594 5592 5590 5588 5586 5585 5582 5581 5579 5578 5577 5575 5574 5572 5571 5571 5571 5572 5572 5572 5571 5571 5570 5569 5567 5565 5564 5562 5560 5559
5601 5600 5599 5598 5597 5596 5595 5594 5593 5592 5592 5591 5589 5587 5585 5583 5581 5579 5577 5575 5573 5572 5570 5569 5567 5565 5563 5562 5563 5565 5566 5565 5564 5563 5562 5561 5559 5557 5556 5554 5552 5550
5596 5595 5594 5594 5593 5592 5591 5590 5589 5588 5587 5586 5584 5582 5580 5578 5576 5574 5572 5570 5567 5565 5563 5561 5559 5557 5555 5555 5555 5558 5559 5559 5557 5556 5555 5553 5551 5550 5548 5546 5545 5542
5591 5590 5590 5589 5588 5588 5587 5585 5584 5583 5582 5580 5579 5577 5575 5573 5571 5569 5567 5564 5562 5559 5557 5554 5552 5550 5547 5546 5547 5548 5551 5552 5551 5549 5548 5546 5544 5543 5542 5539 5537 5535
5587 5586 5585 5584 5584 5583 5581 5580 5579 5578 5577 5575 5573 5571 5569 5568 5566 5564 5562 5559 5556 5554 5551 5548 5545 5543 5540 5538 5538 5539 5541 5544 5545 5543 5541 5539 5537 5536 5534 5532 5529 5528
5583 5582 5581 5580 5579 5577 5576 5575 5574 5573 5571 5569 5567 5565 5563 5562 5561 5558 5556 5554 5551 5549 5546 5543 5540 5536 5534 5533 5533 5532 5533 5537 5539 5537 5534 5532 5530 5528 5526 5524 5522 5520
5580 5578 5577 5575 5574 5573 5572 5570 5569 5568 5565 5563 5561 5559 5557 5556 5554 5553 5551 5548 5546 5543 5541 5538 5534 5529 5529 5529 5529 5528 5527 5529 5532 5531 5528 5525 5523 5521 5518 5516 5514 5512
5576 5574 5573 5572 5570 5569 5567 5565 5564 5563 5560 5558 5556 5553 5552 5550 5549 5547 5545 5544 5541 5538 5535 5533 5528 5524 5523 5524 5524 5524 5522 5523 5526 5526 5522 5519 5516 5513 5511 5508 5506 5505
5572 5570 5567 5566 5564 5563 5562 5560 5559 5557 5554 5552 5550 5548 5547 5545 5542 5542 5540 5539 5537 5534 5531 5527 5522 5519 5518 5518 5518 5519 5517 5518 5520 5520 5516 5512 5510 5507 5504 5501 5499 5498
5567 5564 5561 5560 5559 5557 5555 5554 5552 5550 5549 5548 5546 5544 5542 5539 5536 5535 5535 5534 5532 5530 5526 5522 5516 5514 5513 5513 5513 5513 5513 5513 5515 5514 5510 5507 5505 5501 5498 5496 5493 5491
5562 5559 5555 5554 5552 5550 5550 5547 5546 5545 5545 5544 5543 5540 5537 5535 5532 5530 5529 5528 5528 5525 5521 5516 5511 5508 5508 5508 5508 5508 5508 5510 5510 5509 5506 5504 5501 5498 5495 5491 5487 5485
5555 5552 5550 5548 5546 5545 5543 5541 5540 5541 5542 5541 5539 5536 5532 5530 5528 5525 5524 5523 5522 5520 5516 5511 5506 5504 5503 5502 5502 5502 5503 5506 5506 5504 5502 5501 5497 5495 5492 5486 5481 5478
5547 5545 5543 5542 5540 5538 5537 5536 5537 5537 5538 5537 5535 5531 5528 5526 5523 5522 5519 5518 5517 5514 5511 5507 5502 5498 5497 5496 5496 5495 5497 5500 5502 5500 5498 5496 5493 5491 5488 5483 5476 5472
5539 5538 5536 5535 5534 5533 5533 5533 5534 5533 5534 5533 5530 5527 5525 5523 5520 5518 5515 5512 5510 5507 5505 5503 5497 5493 5491 5491 5490 5489 5490 5494 5496 5494 5492 5491 5488 5485 5483 5479 5474 5469
5534 5532 5531 5530 5529 5529 5530 5530 5531 5531 5530 5528 5526 5524 5522 5520 5517 5515 5511 5508 5505 5501 5499 5498 5493 5489 5486 5485 5484 5483 5483 5487 5489 5487 5486 5485 5483 5480 5478 5475 5471 5467
5532 5530 5528 5527 5527 5527 5527 5527 5527 5526 5525 5524 5523 5521 5519 5516 5513 5511 5508 5505 5502 5498 5495 5492 5489 5486 5482 5479 5478 5476 5476 5479 5481 5479 5478 5479 5478 5475 5473 5470 5467 5464